GBTWP-2 Weather Reports


time (UTC)temp
F
wind
direction
speed
knots
gust
knots
rain 1hr
in
rain 24hr
in
rain mn
in
humidity
%
barometer
mb
20260509043002 42 35 0.0 0.0 0.00 0.00 0.00 76 1009.4
20260509041502 43 37 0.0 0.0 0.00 0.00 0.00 73 1009.4
20260509041002 43 32 0.0 0.0 0.00 0.00 0.00 75 1009.4
20260509040501 42 27 0.0 0.0 0.00 0.00 0.00 76 1009.4
20260509035502 43 27 0.0 0.0 0.00 0.00 0.00 73 1009.7
20260509033001 43 27 0.0 0.0 0.00 0.00 0.00 72 1009.7
20260509032502 44 26 0.0 0.0 0.00 0.00 0.00 73 1009.7
20260509032002 44 26 0.0 0.0 0.00 0.00 0.00 71 1009.8
20260509031502 44 26 0.0 0.0 0.00 0.00 0.00 68 1009.8
20260509031002 44 26 0.0 0.0 0.00 0.00 0.00 68 1009.9
20260509030502 45 15 0.0 0.0 0.00 0.00 0.00 70 1009.9
20260509030001 45 2 0.0 0.0 0.00 0.00 0.00 67 1009.9
20260509025502 45 2 0.0 0.0 0.00 0.00 0.00 68 1009.8
20260509024001 46 2 0.0 0.0 0.00 0.00 0.00 65 1010.0
20260509023001 47 2 0.0 0.0 0.00 0.00 0.00 67 1010.0
20260509022502 47 2 0.0 0.0 0.00 0.00 0.00 67 1010.1
20260509021502 48 2 0.0 0.0 0.00 0.00 0.00 60 1010.0
20260509021001 48 2 0.0 0.0 0.00 0.00 0.00 55 1010.0
20260509020502 48 2 0.0 0.0 0.00 0.00 0.00 56 1010.1
20260509020002 48 2 0.0 0.0 0.00 0.00 0.00 55 1010.0
20260509015501 49 2 0.0 0.0 0.00 0.00 0.00 60 1009.9
20260509014002 50 2 0.0 0.0 0.00 0.00 0.00 56 1009.9
20260509013501 50 2 0.0 0.0 0.00 0.00 0.00 52 1009.9
20260509013002 51 2 0.0 0.0 0.00 0.00 0.00 51 1009.9
20260509012501 52 2 0.0 0.0 0.00 0.00 0.00 46 1009.6
20260509011501 53 2 0.0 0.0 0.00 0.00 0.00 44 1009.7
20260509011002 54 2 0.0 0.0 0.00 0.00 0.00 44 1009.7
20260509010501 54 2 0.0 0.0 0.00 0.00 0.00 43 1009.7
20260509010002 54 5 0.0 0.0 0.00 0.00 0.00 40 1009.5
20260509005501 55 5 0.0 0.0 0.00 0.00 0.00 41 1009.6
20260509004501 55 345 0.0 0.0 0.00 0.00 0.00 44 1009.5
20260509003502 56 13 0.0 0.0 0.00 0.00 0.00 38 1009.5
20260509003001 57 13 0.0 0.0 0.00 0.00 0.00 40 1009.3
20260509002502 58 14 0.0 0.0 0.00 0.00 0.00 36 1009.3
20260509001502 58 12 0.0 0.0 0.00 0.00 0.00 36 1009.4
20260508234501 61 345 0.0 0.0 0.00 0.00 0.00 34 1009.1
20260508234002 62 349 0.0 0.0 0.00 0.00 0.00 31 1009.2
20260508233002 63 325 1.7 1.7 0.00 0.00 0.00 31 1009.1
20260508232502 63 345 0.0 0.0 0.00 0.00 0.00 31 1009.1
20260508225502 64 343 0.9 1.7 0.00 0.00 0.00 29 1009.2
20260508224502 64 348 0.0 0.0 0.00 0.00 0.00 28 1009.3
20260508223502 64 351 0.0 0.0 0.00 0.00 0.00 33 1009.3
20260508223002 64 320 0.9 1.7 0.00 0.00 0.00 33 1009.5
20260508222501 64 341 0.9 1.7 0.00 0.00 0.00 33 1009.4
20260508222002 64 233 1.7 3.5 0.00 0.00 0.00 30 1009.5
20260508221501 64 247 0.9 1.7 0.00 0.00 0.00 32 1009.4
20260508221002 64 163 2.6 3.5 0.00 0.00 0.00 31 1009.3
20260508215501 64 333 0.9 1.7 0.00 0.00 0.00 31 1009.5
20260508215002 64 239 0.9 1.7 0.00 0.00 0.00 32 1009.5
20260508214501 63 323 0.0 0.0 0.00 0.00 0.00 34 1009.7
20260508214002 64 321 1.7 2.6 0.00 0.00 0.00 33 1009.5
20260508212502 62 18 0.0 0.0 0.00 0.00 0.00 29 1009.6
20260508212001 62 80 1.7 2.6 0.00 0.00 0.00 30 1009.5
20260508211502 62 322 0.9 1.7 0.00 0.00 0.00 32 1009.8
20260508210502 63 142 0.9 1.7 0.00 0.00 0.00 32 1010.0
20260508210001 63 274 3.5 4.3 0.00 0.00 0.00 29 1009.9
20260508205502 64 79 0.9 1.7 0.00 0.00 0.00 28 1010.0
20260508204502 63 321 0.9 1.7 0.00 0.00 0.00 32 1009.9
20260508204001 64 143 1.7 3.5 0.00 0.00 0.00 31 1009.9
20260508203502 64 304 1.7 2.6 0.00 0.00 0.00 30 1009.8
20260508202502 64 313 0.0 0.0 0.00 0.00 0.00 33 1010.3
20260508202003 64 254 1.7 1.7 0.00 0.00 0.00 34 1010.3
20260508201501 63 322 0.9 1.7 0.00 0.00 0.00 32 1010.5
20260508201002 63 316 1.7 2.6 0.00 0.00 0.00 31 1010.8
20260508195502 62 160 4.3 4.3 0.00 0.00 0.00 32 1011.1
20260508195001 62 4 0.0 0.0 0.00 0.00 0.00 33 1011.1
20260508194502 62 214 0.9 1.7 0.00 0.00 0.00 33 1011.3
20260508194001 62 309 2.6 3.5 0.00 0.00 0.00 35 1011.2
20260508193502 62 291 0.9 1.7 0.00 0.00 0.00 35 1011.3
20260508192001 61 33 0.0 0.0 0.00 0.00 0.00 32 1011.5
20260508191502 61 222 2.6 3.5 0.00 0.00 0.00 31 1011.5
20260508190502 61 272 0.0 0.0 0.00 0.00 0.00 37 1011.5
20260508190001 61 315 1.7 2.6 0.00 0.00 0.00 35 1011.7
20260508185502 60 18 0.0 0.0 0.00 0.00 0.00 31 1011.6
20260508184501 60 281 0.0 0.0 0.00 0.00 0.00 32 1011.9
20260508184002 61 220 3.5 4.3 0.00 0.00 0.00 33 1011.8
20260508183002 61 331 2.6 3.5 0.00 0.00 0.00 30 1011.9
20260508182501 61 293 2.6 3.5 0.00 0.00 0.00 32 1011.8
20260508181501 59 209 1.7 2.6 0.00 0.00 0.00 32 1012.0
20260508180502 60 19 0.0 0.0 0.00 0.00 0.00 31 1012.0
20260508180001 60 29 0.0 0.0 0.00 0.00 0.00 34 1012.3
20260508175502 60 344 1.7 2.6 0.00 0.00 0.00 34 1012.3
20260508175001 60 165 0.0 0.0 0.00 0.00 0.00 35 1012.6
20260508174502 59 213 2.6 2.6 0.00 0.00 0.00 32 1012.4
20260508173502 58 129 1.7 1.7 0.00 0.00 0.00 31 1012.8
20260508173002 58 98 2.6 2.6 0.00 0.00 0.00 32 1012.8
20260508171501 59 222 1.7 2.6 0.00 0.00 0.00 32 1012.9
20260508165002 57 308 0.9 1.7 0.00 0.00 0.00 36 1013.2
20260508164001 57 202 2.6 2.6 0.00 0.00 0.00 30 1013.6
20260508163001 56 207 3.5 3.5 0.00 0.00 0.00 32 1013.6
20260508162002 57 168 0.9 1.7 0.00 0.00 0.00 30 1013.6
20260508161001 57 175 1.7 3.5 0.00 0.00 0.00 30 1013.7
20260508155001 56 187 1.7 2.6 0.00 0.00 0.00 34 1013.8
20260508154502 55 7 0.0 0.0 0.00 0.00 0.00 38 1013.8
20260508154002 56 139 2.6 3.5 0.00 0.00 0.00 33 1013.8
20260508153502 56 147 1.7 2.6 0.00 0.00 0.00 35 1013.8
20260508153002 55 280 1.7 2.6 0.00 0.00 0.00 39 1013.8
20260508152002 54 148 0.9 1.7 0.00 0.00 0.00 35 1013.8
20260508151501 54 116 2.6 3.5 0.00 0.00 0.00 38 1013.9
20260508151002 54 228 1.7 2.6 0.00 0.00 0.00 37 1014.0
20260508150501 54 240 1.7 2.6 0.00 0.00 0.00 33 1014.0
20260508145502 54 157 1.7 2.6 0.00 0.00 0.00 42 1014.0
20260508145002 54 183 1.7 2.6 0.00 0.00 0.00 42 1014.0
20260508144502 53 2 0.0 0.0 0.00 0.00 0.00 47 1014.2
20260508144002 53 128 1.7 2.6 0.00 0.00 0.00 43 1014.1
20260508142502 52 228 0.0 0.0 0.00 0.00 0.00 51 1014.2
20260508142001 52 245 0.9 2.6 0.00 0.00 0.00 48 1014.3
20260508141502 52 184 1.7 1.7 0.00 0.00 0.00 45 1014.4
20260508140502 52 4 0.0 0.0 0.00 0.00 0.00 45 1014.5
20260508140001 51 256 0.9 1.7 0.00 0.00 0.00 49 1014.6
20260508134501 51 32 0.0 0.0 0.00 0.00 0.00 55 1014.4
20260508133501 51 353 0.0 0.0 0.00 0.00 0.00 55 1014.3
20260508131502 50 155 1.7 1.7 0.00 0.00 0.00 59 1014.6
20260508131002 50 144 0.0 0.0 0.00 0.00 0.00 57 1014.6
20260508130502 49 345 0.0 0.0 0.00 0.00 0.00 58 1014.5
20260508125001 48 332 0.0 0.0 0.00 0.00 0.00 64 1014.6
20260508124001 48 121 0.0 0.0 0.00 0.00 0.00 68 1014.5
20260508123502 47 78 0.0 0.0 0.00 0.00 0.00 68 1014.6
20260508123001 46 276 0.0 0.0 0.00 0.00 0.00 71 1014.6
20260508122502 46 54 0.0 0.0 0.00 0.00 0.00 74 1014.6
20260508122002 46 97 0.0 0.0 0.00 0.00 0.00 75 1014.5
20260508121502 45 103 0.0 0.0 0.00 0.00 0.00 77 1014.4
20260508120501 44 68 0.0 0.0 0.00 0.00 0.00 78 1014.2
20260508115001 41 67 0.0 0.0 0.00 0.00 0.00 82 1013.9
20260508114502 41 62 0.0 0.0 0.00 0.00 0.00 87 1014.0
20260508114001 40 61 0.0 0.0 0.00 0.00 0.00 90 1014.0
20260508113002 38 61 0.0 0.0 0.00 0.00 0.00 94 1014.0
20260508112501 37 62 0.0 0.0 0.00 0.00 0.00 95 1013.8
20260508112002 36 59 0.0 0.0 0.00 0.00 0.00 95 1013.8
20260508111501 35 59 0.0 0.0 0.00 0.00 0.00 95 1014.0
20260508111002 35 59 0.0 0.0 0.00 0.00 0.00 95 1013.9
20260508110502 34 59 0.0 0.0 0.00 0.00 0.00 95 1013.9
20260508110001 34 59 0.0 0.0 0.00 0.00 0.00 95 1013.8
20260508105502 34 59 0.0 0.0 0.00 0.00 0.00 96 1013.8
20260508105001 34 59 0.0 0.0 0.00 0.00 0.00 95 1013.8
20260508104502 34 59 0.0 0.0 0.00 0.00 0.00 95 1013.9
20260508103002 34 59 0.0 0.0 0.00 0.00 0.00 95 1013.8
20260508102501 34 59 0.0 0.0 0.00 0.00 0.00 95 1013.9
20260508102002 34 59 0.0 0.0 0.00 0.00 0.00 95 1013.8
20260508101501 34 59 0.0 0.0 0.00 0.00 0.00 95 1013.8
20260508101002 34 59 0.0 0.0 0.00 0.00 0.00 95 1013.9
20260508100501 34 59 0.0 0.0 0.00 0.00 0.00 95 1013.8
20260508095501 34 59 0.0 0.0 0.00 0.00 0.00 95 1013.9
20260508093502 35 59 0.0 0.0 0.00 0.00 0.00 95 1013.9
20260508093001 35 59 0.0 0.0 0.00 0.00 0.00 94 1013.8
20260508092502 35 59 0.0 0.0 0.00 0.00 0.00 94 1013.9
20260508092001 35 58 0.0 0.0 0.00 0.00 0.00 94 1014.0
20260508091502 36 57 0.0 0.0 0.00 0.00 0.00 94 1014.0
20260508090502 36 48 0.0 0.0 0.00 0.00 0.00 94 1013.9
20260508090001 36 47 0.0 0.0 0.00 0.00 0.00 94 1014.0
20260508085002 36 20 0.0 0.0 0.00 0.00 0.00 94 1014.1
20260508084002 37 20 0.0 0.0 0.00 0.00 0.00 93 1014.0
20260508083501 37 20 0.0 0.0 0.00 0.00 0.00 93 1014.1
20260508083002 37 20 0.0 0.0 0.00 0.00 0.00 93 1014.2
20260508081002 38 19 0.0 0.0 0.00 0.00 0.00 91 1014.0
20260508080002 38 19 0.0 0.0 0.00 0.00 0.00 90 1014.1
20260508075502 38 20 0.0 0.0 0.00 0.00 0.00 90 1014.2
20260508074501 39 12 0.0 0.0 0.00 0.00 0.00 89 1014.1
20260508074002 39 12 0.0 0.0 0.00 0.00 0.00 88 1014.0
20260508070002 42 49 0.0 0.0 0.00 0.00 0.00 81 1013.9
20260508065501 42 55 0.0 0.0 0.00 0.00 0.00 82 1013.9
20260508064501 42 48 0.0 0.0 0.00 0.00 0.00 83 1014.0
20260508064002 42 53 0.0 0.0 0.00 0.00 0.00 81 1014.0
20260508063502 42 46 0.0 0.0 0.00 0.00 0.00 81 1014.1
20260508055502 42 8 0.0 0.0 0.00 0.00 0.00 85 1014.7
20260508055001 42 8 0.0 0.0 0.00 0.00 0.00 86 1014.6
20260508054001 42 30 0.0 0.0 0.00 0.00 0.00 85 1014.4
20260508053502 42 0 0.0 0.0 0.00 0.00 0.00 84 1014.9
20260508052502 42 0 0.0 0.0 0.00 0.00 0.00 83 1014.7
20260508052002 42 0 0.0 0.0 0.00 0.00 0.00 82 1014.5
20260508051502 42 5 0.0 0.0 0.00 0.00 0.00 81 1014.2
20260508051002 43 42 0.0 0.0 0.00 0.00 0.00 77 1014.1
20260508050003 43 358 0.0 0.0 0.00 0.00 0.00 76 1014.9
20260508045501 44 358 0.0 0.0 0.00 0.00 0.00 78 1014.9
20260508045002 43 359 0.0 0.0 0.00 0.00 0.00 76 1014.3
20260508044501 43 54 0.0 0.0 0.00 0.00 0.00 76 1014.3
20260508044002 43 55 0.0 0.0 0.00 0.00 0.00 75 1014.2
20260508043502 43 54 0.0 0.0 0.00 0.00 0.00 76 1014.4